Location: Mountain Grove
(34.0887°N, 86.6172°W)
Time: 00:43:10
(UTC+00:00)

NOSS 0 Rocket - Pass Details

Date: 14 July 2020
Orbit: 934 x 955 km, 70.0° (Epoch: 12 August)

Event Time Altitude Azimuth Distance (km) Brightness Sun altitude
Rises 01:48:32 0° 191° (SSW) 3,573 6.7 -9.6°
Reaches altitude 10° 01:51:03 10° 189° (S) 2,633 6.0 -10.0°
Maximum altitude 01:57:05 64° 109° (ESE) 1,029 3.9 -11.1°
Drops below altitude 10° 02:03:09 10° 29° (NNE) 2,657 6.4 -12.1°
Sets 02:05:42 0° 26° (NNE) 3,607 7.1 -12.5°
